Volver al catálogo

STARLINK-30701

ActivoComunicacionesVLEO
NORAD 57950·PAYLOAD·🇺🇸 United States

Lanzado Sep 25, 2023 desde Vandenberg Space Force Base

Loading…

Próximos Pases (próximas 24 horas)

TLE

ActualizadoSource: CelesTrak SupGP

Época: Sep 15, 2026, 01:50 UTC

1 57950C 23148R   26258.07687500 -.00054691  00000+0 -16155-2 0  2584
2 57950  53.1572 221.3464 0001368  94.7392 278.2635 15.34424063    11

Sigue STARLINK-30701 en tiempo real con AllMySat

Download on the App Store